GFSGBSN_prec_precacc_162.txt.gz
Total_Precipitation_Accumulation
0.43 0.41 0.39 0.34 0.32 0.26 0.23 0.22 0.18 0.12 0.07 0.05 0.04 0.04 0.03 0.03 0.03 0.03 0.02 0.02 0.02 0.02 0.02 0.02 0.02 0.02 0.01 0.00 0.00 0.00 0.00 0.00 0.00 0.00 0.00 0.00 0.00 0.00 0.00 0.00 0.00 0.00 0.00 0.00 0.00 0.03 0.02
0.41 0.43 0.44 0.41 0.39 0.36 0.31 0.25 0.17 0.12 0.08 0.06 0.04 0.04 0.02 0.03 0.03 0.03 0.03 0.02 0.02 0.02 0.02 0.02 0.02 0.03 0.00 0.00 0.00 0.00 0.00 0.00 0.00 0.00 0.00 0.00 0.00 0.00 0.00 0.00 0.00 0.00 0.00 0.00 0.00 0.02 0.02
0.73 0.53 0.39 0.33 0.29 0.27 0.25 0.23 0.23 0.24 0.21 0.15 0.11 0.06 0.04 0.03 0.03 0.02 0.02 0.02 0.02 0.02 0.03 0.02 0.02 0.02 0.00 0.00 0.00 0.00 0.00 0.00 0.00 0.00 0.00 0.00 0.00 0.00 0.00 0.00 0.00 0.00 0.00 0.00 0.00 0.01 0.02
1.28 1.03 0.91 0.89 0.82 0.67 0.53 0.45 0.39 0.31 0.25 0.19 0.13 0.08 0.06 0.03 0.03 0.02 0.02 0.02 0.02 0.02 0.03 0.04 0.04 0.02 0.00 0.00 0.00 0.00 0.00 0.00 0.00 0.00 0.00 0.00 0.00 0.00 0.00 0.00 0.00 0.00 0.00 0.00 0.02 0.00 0.02
1.17 1.18 1.11 0.97 0.84 0.82 0.82 0.76 0.72 0.67 0.59 0.48 0.39 0.28 0.18 0.09 0.06 0.05 0.03 0.02 0.02 0.03 0.04 0.04 0.02 0.01 0.00 0.00 0.00 0.00 0.00 0.02 0.01 0.00 0.00 0.00 0.00 0.00 0.00 0.00 0.00 0.00 0.00 0.00 0.00 0.00 0.01
0.62 0.62 0.62 0.64 0.60 0.52 0.46 0.42 0.43 0.47 0.55 0.49 0.46 0.46 0.34 0.20 0.14 0.07 0.03 0.02 0.02 0.02 0.01 0.00 0.01 0.01 0.00 0.00 0.00 0.00 0.00 0.01 0.02 0.00 0.00 0.00 0.00 0.00 0.00 0.00 0.00 0.00 0.00 0.00 0.00 0.00 0.00
0.49 0.47 0.47 0.48 0.44 0.38 0.30 0.27 0.26 0.27 0.31 0.30 0.30 0.31 0.32 0.27 0.20 0.13 0.04 0.01 0.01 0.00 0.00 0.00 0.00 0.00 0.00 0.00 0.00 0.00 0.00 0.00 0.00 0.00 0.00 0.01 0.00 0.01 0.00 0.00 0.01 0.01 0.01 0.03 0.01 0.00 0.00
0.44 0.40 0.36 0.35 0.31 0.29 0.27 0.29 0.29 0.27 0.26 0.24 0.19 0.16 0.16 0.20 0.18 0.07 0.02 0.00 0.00 0.03 0.05 0.00 0.00 0.00 0.00 0.00 0.00 0.00 0.00 0.00 0.01 0.05 0.02 0.04 0.04 0.01 0.00 0.01 0.03 0.05 0.09 0.04 0.01 0.01 0.06
0.77 0.60 0.48 0.43 0.38 0.31 0.25 0.26 0.25 0.22 0.20 0.16 0.17 0.17 0.16 0.12 0.10 0.04 0.01 0.01 0.00 0.00 0.02 0.00 0.00 0.00 0.00 0.00 0.01 0.00 0.00 0.00 0.02 0.06 0.06 0.07 0.03 0.00 0.01 0.02 0.02 0.02 0.02 0.00 0.01 0.05 0.17
0.76 0.71 0.70 0.64 0.57 0.50 0.43 0.41 0.38 0.30 0.23 0.16 0.14 0.19 0.22 0.17 0.09 0.02 0.02 0.00 0.00 0.00 0.07 0.00 0.00 0.03 0.04 0.01 0.01 0.00 0.00 0.00 0.01 0.01 0.02 0.04 0.00 0.01 0.04 0.04 0.04 0.06 0.02 0.01 0.02 0.17 0.20
0.52 0.52 0.55 0.53 0.49 0.47 0.40 0.39 0.36 0.32 0.26 0.21 0.20 0.17 0.21 0.23 0.08 0.06 0.03 0.02 0.00 0.08 0.16 0.00 0.01 0.04 0.01 0.01 0.01 0.01 0.00 0.01 0.02 0.01 0.04 0.06 0.01 0.02 0.03 0.02 0.02 0.02 0.01 0.04 0.09 0.12 0.17
0.55 0.44 0.45 0.48 0.49 0.46 0.39 0.40 0.38 0.26 0.23 0.16 0.17 0.24 0.38 0.21 0.07 0.04 0.02 0.04 0.15 0.37 0.20 0.00 0.01 0.02 0.02 0.00 0.00 0.00 0.00 0.01 0.01 0.02 0.02 0.02 0.02 0.07 0.05 0.01 0.02 0.06 0.06 0.20 0.22 0.17 0.24
0.57 0.51 0.47 0.47 0.46 0.46 0.47 0.41 0.30 0.24 0.27 0.28 0.28 0.31 0.34 0.14 0.11 0.04 0.06 0.27 0.61 0.41 0.02 0.00 0.01 0.00 0.02 0.05 0.06 0.08 0.08 0.12 0.10 0.06 0.08 0.07 0.08 0.02 0.01 0.05 0.03 0.06 0.16 0.37 0.52 0.43 0.16
0.70 0.58 0.54 0.52 0.45 0.43 0.40 0.37 0.34 0.33 0.31 0.35 0.44 0.48 0.34 0.15 0.11 0.11 0.37 0.70 0.66 0.06 0.01 0.00 0.00 0.01 0.13 0.20 0.17 0.18 0.09 0.08 0.03 0.02 0.08 0.16 0.24 0.05 0.01 0.02 0.03 0.06 0.15 0.32 0.70 0.53 0.27
0.78 0.69 0.62 0.53 0.46 0.43 0.40 0.38 0.36 0.38 0.44 0.54 0.79 0.55 0.42 0.18 0.16 0.33 1.11 1.20 0.20 0.02 0.03 0.02 0.03 0.12 0.25 0.15 0.23 0.19 0.06 0.08 0.02 0.02 0.27 0.36 0.43 0.03 0.02 0.03 0.03 0.03 0.08 0.11 0.53 0.52 0.72
0.98 0.91 0.79 0.68 0.61 0.54 0.53 0.50 0.49 0.53 0.65 0.77 0.72 0.68 0.32 0.17 0.37 0.80 1.56 0.76 0.08 0.01 0.01 0.05 0.34 0.30 0.33 0.16 0.21 0.15 0.13 0.07 0.04 0.01 0.12 0.39 0.86 0.07 0.06 0.07 0.04 0.03 0.09 0.44 0.86 1.13 0.81
1.14 1.03 0.89 0.72 0.66 0.61 0.57 0.60 0.67 0.68 0.96 0.97 1.07 1.16 0.44 0.34 1.15 1.91 1.39 0.27 0.01 0.00 0.02 0.13 0.39 0.35 0.33 0.43 0.35 0.47 0.46 0.22 0.05 0.12 0.13 0.25 0.88 0.19 0.04 0.14 0.03 0.02 0.13 0.39 0.62 0.37 0.98
1.39 1.18 1.06 0.86 0.77 0.74 0.70 0.73 0.85 1.00 1.31 1.80 2.07 1.57 0.68 0.94 1.86 1.45 0.58 0.10 0.03 0.01 0.00 0.04 0.23 0.43 0.52 0.56 0.52 1.07 0.61 0.33 0.04 0.17 0.23 0.07 0.31 0.11 0.04 0.03 0.03 0.03 0.05 0.20 0.77 0.76 1.08
1.69 1.47 1.24 1.09 0.95 0.94 0.84 0.90 1.03 1.29 1.66 2.08 2.87 1.88 1.63 1.44 1.47 0.66 0.23 0.09 0.05 0.03 0.03 0.04 0.10 0.44 0.63 0.68 0.82 0.74 0.67 0.20 0.01 0.02 0.08 0.15 0.26 0.28 0.27 0.19 0.38 0.21 0.13 0.21 0.46 0.90 1.52
1.75 1.61 1.38 1.28 1.22 1.16 1.03 1.04 1.23 1.49 1.91 2.62 3.57 2.65 3.20 3.20 1.05 0.32 0.31 0.23 0.17 0.03 0.13 0.10 0.17 0.47 0.56 0.53 0.45 0.59 0.62 0.19 0.06 0.01 0.02 0.13 0.33 0.47 0.61 0.65 0.77 0.63 0.53 0.42 0.92 1.47 1.06
1.99 1.73 1.49 1.38 1.39 1.35 1.27 1.16 1.28 1.76 2.30 3.75 4.90 2.26 1.18 1.75 1.11 0.45 0.45 0.58 0.47 0.37 0.20 0.18 0.28 0.26 0.29 0.45 0.29 0.29 0.39 0.27 0.17 0.06 0.09 0.23 0.80 0.57 0.53 0.63 0.47 0.68 1.14 1.18 0.90 0.76 0.86
1.98 1.80 1.62 1.49 1.41 1.55 1.43 1.35 1.29 1.73 3.19 5.76 5.07 1.22 0.58 0.37 0.24 0.43 0.63 0.64 0.36 0.19 0.20 0.19 0.17 0.10 0.15 0.22 0.23 0.16 0.22 0.37 0.33 0.16 0.27 0.24 0.74 0.86 0.69 0.62 0.40 0.60 0.94 0.65 0.63 0.97 0.87
2.17 1.95 1.90 1.72 1.62 1.67 1.83 1.65 1.54 1.76 3.94 7.44 4.32 0.89 0.93 0.68 0.31 0.59 0.55 0.29 0.23 0.22 0.26 0.14 0.13 0.23 0.20 0.12 0.18 0.22 0.18 0.24 0.21 0.22 0.29 0.35 0.48 0.58 0.48 0.27 0.22 0.64 0.85 0.50 0.30 0.27 0.26
2.16 2.03 1.88 2.14 1.84 1.78 1.78 1.88 1.98 2.07 3.05 4.22 2.89 1.00 1.55 1.40 0.65 0.31 0.13 0.17 0.18 0.26 0.28 0.20 0.27 0.32 0.21 0.18 0.34 0.45 0.36 0.21 0.20 0.18 0.28 0.45 0.44 0.66 0.55 0.49 0.94 0.72 0.28 0.15 0.04 0.06 0.07
1.89 1.98 1.66 1.84 2.10 1.88 1.67 1.72 2.17 2.21 2.18 2.53 2.08 1.56 1.72 1.37 0.39 0.25 0.22 0.19 0.18 0.24 0.37 0.24 0.23 0.27 0.31 0.37 0.71 0.69 0.56 0.44 0.18 0.22 0.23 0.24 0.44 0.79 0.77 0.47 0.49 0.27 0.09 0.05 0.10 0.12 0.08
1.85 1.78 1.50 1.62 1.72 2.06 1.83 1.68 1.95 2.26 2.19 2.47 1.99 2.05 2.39 2.05 0.71 0.17 0.25 0.31 0.41 0.43 0.42 0.19 0.26 0.21 0.31 0.57 0.83 0.86 0.57 0.37 0.25 0.25 0.22 0.41 0.46 0.82 0.92 0.63 0.44 0.20 0.06 0.03 0.04 0.19 0.08
2.34 1.87 1.53 1.54 1.48 1.81 1.99 1.79 1.54 1.96 2.37 2.65 2.25 1.88 3.41 3.16 0.75 0.30 0.34 0.27 0.27 0.42 0.57 0.37 0.42 0.43 0.41 0.72 0.77 0.43 0.31 0.17 0.33 0.27 0.27 0.36 0.69 0.91 0.84 0.70 0.22 0.05 0.09 0.09 0.30 0.45 0.11
2.39 2.24 1.52 1.37 1.34 1.44 1.66 1.76 1.63 1.72 2.32 3.17 2.56 1.58 2.49 2.97 1.06 0.51 0.41 0.46 0.29 0.34 0.57 0.53 0.88 1.02 0.97 0.78 0.45 0.28 0.19 0.13 0.32 0.31 0.25 0.24 0.39 0.48 0.71 0.80 0.39 0.12 0.27 0.38 0.40 0.19 0.09
1.90 2.29 1.46 1.27 1.28 1.34 1.24 1.47 1.82 1.78 2.28 3.32 3.30 1.71 1.99 2.81 1.76 0.76 0.39 0.34 0.29 0.26 0.52 0.71 0.84 0.59 0.60 0.77 0.51 0.40 0.30 0.19 0.19 0.55 0.29 0.58 0.31 0.31 0.29 0.35 0.38 0.34 0.44 0.36 0.20 0.23 0.24

GFSGBSN_prec_precacc_165.txt.gz
Total_Precipitation_Accumulation
0.43 0.41 0.39 0.34 0.32 0.26 0.23 0.22 0.18 0.12 0.07 0.05 0.04 0.04 0.03 0.03 0.03 0.03 0.02 0.02 0.02 0.02 0.02 0.02 0.02 0.02 0.01 0.00 0.00 0.00 0.00 0.00 0.00 0.00 0.00 0.00 0.00 0.00 0.00 0.00 0.00 0.00 0.00 0.00 0.00 0.03 0.02
0.41 0.43 0.44 0.41 0.39 0.36 0.31 0.25 0.17 0.12 0.08 0.06 0.04 0.04 0.02 0.03 0.03 0.03 0.03 0.02 0.02 0.02 0.02 0.02 0.02 0.03 0.00 0.00 0.00 0.00 0.00 0.00 0.00 0.00 0.00 0.00 0.00 0.00 0.00 0.00 0.00 0.00 0.00 0.00 0.00 0.02 0.02
0.73 0.53 0.39 0.33 0.29 0.27 0.25 0.23 0.23 0.24 0.21 0.15 0.11 0.06 0.04 0.03 0.03 0.03 0.02 0.02 0.02 0.02 0.03 0.02 0.02 0.02 0.00 0.00 0.00 0.00 0.00 0.00 0.00 0.00 0.00 0.00 0.00 0.00 0.00 0.00 0.00 0.00 0.00 0.00 0.00 0.01 0.02
1.29 1.04 0.91 0.89 0.82 0.67 0.53 0.45 0.39 0.31 0.25 0.20 0.13 0.08 0.06 0.04 0.03 0.02 0.02 0.02 0.02 0.02 0.03 0.04 0.04 0.02 0.00 0.00 0.00 0.00 0.00 0.00 0.00 0.00 0.00 0.00 0.00 0.00 0.00 0.00 0.00 0.00 0.00 0.00 0.02 0.00 0.02
1.20 1.22 1.16 1.03 0.91 0.88 0.86 0.78 0.73 0.68 0.60 0.48 0.39 0.29 0.19 0.09 0.07 0.05 0.03 0.02 0.02 0.03 0.04 0.04 0.02 0.01 0.00 0.00 0.00 0.00 0.00 0.02 0.01 0.00 0.00 0.00 0.00 0.00 0.00 0.00 0.00 0.00 0.00 0.00 0.00 0.00 0.01
0.65 0.65 0.64 0.68 0.68 0.68 0.64 0.61 0.58 0.56 0.60 0.51 0.46 0.46 0.34 0.20 0.14 0.07 0.03 0.02 0.02 0.02 0.01 0.00 0.01 0.01 0.00 0.00 0.00 0.00 0.00 0.01 0.02 0.00 0.00 0.00 0.00 0.00 0.00 0.00 0.00 0.00 0.00 0.00 0.00 0.00 0.00
0.54 0.51 0.50 0.50 0.47 0.42 0.37 0.36 0.36 0.37 0.42 0.36 0.32 0.32 0.32 0.27 0.20 0.13 0.04 0.01 0.01 0.00 0.00 0.00 0.00 0.00 0.00 0.00 0.00 0.00 0.00 0.00 0.00 0.00 0.00 0.01 0.00 0.01 0.00 0.00 0.01 0.01 0.01 0.03 0.01 0.00 0.00
0.55 0.46 0.41 0.39 0.33 0.31 0.32 0.36 0.36 0.35 0.34 0.31 0.23 0.17 0.16 0.20 0.18 0.07 0.02 0.00 0.00 0.03 0.05 0.00 0.00 0.00 0.00 0.00 0.00 0.00 0.00 0.00 0.01 0.05 0.02 0.04 0.04 0.01 0.00 0.01 0.03 0.05 0.09 0.04 0.01 0.01 0.06
0.89 0.71 0.57 0.49 0.44 0.36 0.31 0.31 0.30 0.30 0.29 0.24 0.22 0.19 0.16 0.12 0.10 0.04 0.01 0.02 0.00 0.00 0.02 0.00 0.00 0.00 0.00 0.00 0.01 0.00 0.00 0.00 0.02 0.06 0.06 0.07 0.03 0.00 0.01 0.02 0.02 0.02 0.02 0.00 0.01 0.05 0.17
0.80 0.75 0.76 0.73 0.66 0.60 0.51 0.47 0.44 0.37 0.32 0.26 0.20 0.23 0.23 0.17 0.10 0.02 0.04 0.03 0.01 0.00 0.07 0.00 0.00 0.03 0.04 0.01 0.01 0.00 0.00 0.00 0.01 0.01 0.02 0.04 0.00 0.01 0.04 0.04 0.04 0.06 0.02 0.01 0.02 0.17 0.20
0.59 0.56 0.60 0.58 0.56 0.55 0.49 0.42 0.38 0.35 0.31 0.26 0.23 0.19 0.22 0.23 0.09 0.07 0.06 0.03 0.01 0.09 0.18 0.00 0.01 0.04 0.01 0.01 0.01 0.01 0.00 0.01 0.02 0.01 0.04 0.06 0.01 0.02 0.03 0.02 0.02 0.02 0.01 0.04 0.09 0.12 0.17
0.60 0.51 0.54 0.58 0.55 0.51 0.46 0.46 0.41 0.28 0.24 0.17 0.18 0.24 0.39 0.21 0.08 0.05 0.02 0.05 0.18 0.46 0.24 0.00 0.01 0.02 0.02 0.00 0.00 0.00 0.00 0.01 0.01 0.02 0.02 0.02 0.02 0.07 0.05 0.01 0.02 0.06 0.06 0.20 0.22 0.17 0.24
0.59 0.53 0.50 0.51 0.51 0.50 0.51 0.47 0.34 0.28 0.28 0.28 0.30 0.31 0.34 0.14 0.11 0.05 0.07 0.31 0.75 0.50 0.03 0.00 0.01 0.00 0.02 0.05 0.06 0.08 0.08 0.12 0.10 0.06 0.08 0.07 0.08 0.02 0.01 0.05 0.03 0.06 0.16 0.37 0.52 0.43 0.16
0.72 0.59 0.54 0.52 0.45 0.43 0.40 0.38 0.36 0.36 0.34 0.36 0.46 0.49 0.34 0.15 0.11 0.11 0.39 0.81 0.82 0.07 0.01 0.00 0.00 0.01 0.13 0.20 0.17 0.18 0.09 0.08 0.03 0.02 0.08 0.16 0.24 0.05 0.01 0.02 0.03 0.06 0.15 0.32 0.70 0.53 0.27
0.79 0.69 0.62 0.54 0.47 0.43 0.40 0.38 0.37 0.40 0.47 0.62 0.88 0.57 0.42 0.18 0.16 0.33 1.12 1.29 0.23 0.02 0.03 0.02 0.03 0.12 0.25 0.15 0.23 0.19 0.06 0.08 0.02 0.02 0.27 0.36 0.43 0.03 0.02 0.03 0.03 0.03 0.08 0.11 0.54 0.53 0.74
0.99 0.92 0.80 0.69 0.61 0.54 0.53 0.50 0.49 0.53 0.66 0.84 0.84 0.81 0.36 0.17 0.37 0.80 1.57 0.76 0.08 0.01 0.01 0.05 0.34 0.30 0.33 0.16 0.21 0.15 0.13 0.07 0.04 0.01 0.12 0.39 0.86 0.07 0.06 0.07 0.04 0.03 0.09 0.44 0.87 1.13 0.82
1.16 1.03 0.89 0.74 0.67 0.61 0.57 0.60 0.67 0.68 0.97 1.02 1.11 1.21 0.46 0.34 1.16 1.93 1.41 0.27 0.01 0.00 0.02 0.13 0.39 0.35 0.33 0.43 0.35 0.47 0.46 0.22 0.05 0.12 0.13 0.25 0.88 0.19 0.04 0.14 0.03 0.02 0.13 0.39 0.62 0.37 0.98
1.40 1.19 1.07 0.87 0.78 0.75 0.70 0.73 0.85 1.00 1.34 1.85 2.13 1.61 0.69 0.95 1.90 1.55 0.59 0.10 0.03 0.01 0.00 0.04 0.23 0.43 0.52 0.56 0.53 1.08 0.61 0.33 0.04 0.17 0.23 0.08 0.33 0.11 0.04 0.03 0.03 0.03 0.05 0.20 0.77 0.76 1.08
1.70 1.47 1.24 1.09 0.95 0.94 0.84 0.90 1.03 1.29 1.71 2.12 2.92 1.92 1.65 1.47 1.54 0.68 0.25 0.09 0.05 0.03 0.03 0.04 0.10 0.44 0.63 0.68 0.83 0.74 0.67 0.20 0.01 0.03 0.10 0.17 0.37 0.33 0.27 0.19 0.38 0.21 0.13 0.21 0.46 0.90 1.53
1.75 1.61 1.38 1.28 1.22 1.16 1.03 1.04 1.23 1.49 1.92 2.69 3.62 2.70 3.29 3.38 1.15 0.32 0.31 0.23 0.17 0.03 0.13 0.10 0.17 0.47 0.56 0.54 0.47 0.61 0.62 0.19 0.06 0.02 0.04 0.22 0.48 0.54 0.64 0.65 0.77 0.63 0.53 0.42 0.92 1.49 1.07
2.00 1.73 1.49 1.38 1.39 1.35 1.27 1.17 1.28 1.76 2.32 3.84 5.00 2.31 1.20 1.85 1.24 0.52 0.47 0.58 0.47 0.37 0.20 0.18 0.28 0.26 0.29 0.46 0.29 0.29 0.39 0.27 0.17 0.06 0.10 0.29 0.94 0.63 0.58 0.65 0.47 0.69 1.14 1.18 0.90 0.77 0.86
2.00 1.81 1.63 1.49 1.41 1.55 1.43 1.36 1.30 1.73 3.20 5.79 5.18 1.28 0.62 0.39 0.25 0.49 0.77 0.72 0.36 0.19 0.20 0.19 0.17 0.11 0.17 0.24 0.23 0.16 0.23 0.38 0.33 0.16 0.28 0.28 0.83 0.90 0.71 0.62 0.41 0.61 0.94 0.65 0.63 0.97 0.87
2.19 1.98 1.93 1.72 1.62 1.67 1.83 1.65 1.54 1.77 3.95 7.44 4.34 0.94 1.03 0.77 0.36 0.65 0.59 0.33 0.24 0.23 0.28 0.14 0.13 0.25 0.21 0.12 0.18 0.22 0.19 0.24 0.21 0.23 0.30 0.37 0.54 0.63 0.52 0.27 0.23 0.70 0.87 0.50 0.30 0.28 0.26
2.20 2.08 1.91 2.16 1.85 1.79 1.78 1.88 1.98 2.07 3.05 4.22 2.89 1.02 1.58 1.47 0.70 0.37 0.18 0.21 0.21 0.28 0.31 0.21 0.28 0.36 0.22 0.18 0.34 0.45 0.36 0.21 0.21 0.18 0.29 0.46 0.44 0.71 0.61 0.52 1.03 0.73 0.28 0.15 0.04 0.06 0.07
1.92 2.01 1.72 1.90 2.13 1.89 1.68 1.72 2.17 2.21 2.19 2.53 2.08 1.56 1.73 1.39 0.40 0.25 0.23 0.20 0.18 0.26 0.42 0.29 0.25 0.29 0.32 0.39 0.75 0.71 0.57 0.45 0.18 0.22 0.23 0.24 0.45 0.84 0.85 0.53 0.52 0.27 0.09 0.05 0.10 0.12 0.08
1.87 1.81 1.52 1.70 1.86 2.11 1.85 1.69 1.95 2.26 2.20 2.48 1.99 2.06 2.40 2.05 0.71 0.17 0.27 0.33 0.44 0.45 0.43 0.19 0.26 0.22 0.31 0.59 0.88 0.89 0.58 0.39 0.27 0.25 0.22 0.41 0.47 0.90 1.00 0.70 0.46 0.20 0.06 0.03 0.04 0.19 0.08
2.35 1.89 1.55 1.56 1.52 1.94 2.11 1.83 1.55 1.96 2.38 2.67 2.26 1.89 3.41 3.16 0.75 0.30 0.34 0.28 0.31 0.49 0.69 0.43 0.47 0.47 0.45 0.80 0.85 0.49 0.35 0.20 0.36 0.28 0.27 0.36 0.71 0.97 0.89 0.80 0.24 0.05 0.09 0.09 0.30 0.45 0.11
2.40 2.25 1.54 1.39 1.38 1.46 1.71 1.84 1.65 1.73 2.32 3.18 2.57 1.59 2.50 2.97 1.06 0.51 0.41 0.46 0.29 0.39 0.70 0.65 0.96 1.07 1.03 0.97 0.60 0.31 0.20 0.14 0.32 0.31 0.25 0.24 0.41 0.50 0.77 0.91 0.44 0.13 0.28 0.39 0.41 0.19 0.09
1.90 2.30 1.48 1.30 1.31 1.38 1.28 1.50 1.83 1.78 2.28 3.34 3.30 1.71 2.01 2.83 1.77 0.76 0.39 0.34 0.29 0.26 0.52 0.72 0.87 0.65 0.78 1.00 0.68 0.51 0.38 0.25 0.21 0.56 0.29 0.58 0.31 0.32 0.30 0.37 0.39 0.34 0.45 0.36 0.20 0.23 0.24

GFSGBSN_prec_precacc_168.txt.gz
Total_Precipitation_Accumulation
0.43 0.41 0.39 0.34 0.32 0.26 0.23 0.22 0.18 0.12 0.07 0.05 0.04 0.04 0.03 0.03 0.03 0.03 0.02 0.02 0.02 0.02 0.02 0.02 0.02 0.02 0.01 0.00 0.00 0.00 0.00 0.00 0.00 0.00 0.00 0.00 0.00 0.00 0.00 0.00 0.00 0.00 0.00 0.00 0.00 0.03 0.02
0.41 0.43 0.44 0.41 0.39 0.36 0.31 0.25 0.17 0.12 0.08 0.06 0.04 0.04 0.02 0.03 0.03 0.03 0.03 0.02 0.02 0.02 0.02 0.02 0.02 0.03 0.00 0.00 0.00 0.00 0.00 0.00 0.00 0.00 0.00 0.00 0.00 0.00 0.00 0.00 0.00 0.00 0.00 0.00 0.00 0.02 0.02
0.73 0.53 0.39 0.33 0.29 0.27 0.25 0.23 0.23 0.24 0.21 0.15 0.11 0.06 0.04 0.03 0.03 0.03 0.02 0.02 0.02 0.02 0.03 0.02 0.02 0.02 0.00 0.00 0.00 0.00 0.00 0.00 0.00 0.00 0.00 0.00 0.00 0.00 0.00 0.00 0.00 0.00 0.00 0.00 0.00 0.01 0.02
1.29 1.04 0.91 0.89 0.82 0.67 0.53 0.45 0.39 0.31 0.25 0.20 0.13 0.08 0.06 0.04 0.03 0.03 0.02 0.02 0.02 0.02 0.03 0.04 0.04 0.02 0.00 0.00 0.00 0.00 0.00 0.00 0.00 0.00 0.00 0.00 0.00 0.00 0.00 0.00 0.00 0.00 0.00 0.00 0.02 0.00 0.02
1.21 1.24 1.17 1.05 0.92 0.89 0.87 0.79 0.74 0.68 0.60 0.49 0.39 0.29 0.19 0.09 0.07 0.05 0.03 0.02 0.02 0.03 0.04 0.04 0.02 0.01 0.00 0.00 0.00 0.00 0.00 0.02 0.01 0.00 0.00 0.00 0.00 0.00 0.00 0.00 0.00 0.00 0.00 0.00 0.00 0.00 0.01
0.75 0.73 0.70 0.73 0.71 0.70 0.68 0.65 0.66 0.69 0.73 0.64 0.56 0.51 0.36 0.20 0.14 0.07 0.03 0.02 0.02 0.02 0.02 0.00 0.01 0.01 0.00 0.00 0.00 0.00 0.00 0.01 0.02 0.00 0.00 0.00 0.00 0.00 0.00 0.00 0.00 0.00 0.00 0.00 0.00 0.00 0.00
0.63 0.60 0.58 0.57 0.50 0.44 0.39 0.37 0.37 0.41 0.47 0.46 0.45 0.41 0.36 0.28 0.20 0.13 0.04 0.01 0.01 0.00 0.00 0.00 0.00 0.00 0.00 0.00 0.00 0.00 0.00 0.00 0.00 0.00 0.00 0.01 0.00 0.01 0.00 0.00 0.01 0.01 0.01 0.03 0.01 0.00 0.00
0.67 0.59 0.50 0.47 0.40 0.37 0.36 0.39 0.38 0.37 0.37 0.34 0.27 0.23 0.20 0.21 0.18 0.07 0.02 0.00 0.00 0.03 0.06 0.00 0.00 0.00 0.00 0.00 0.00 0.00 0.00 0.00 0.01 0.05 0.02 0.04 0.04 0.01 0.00 0.01 0.03 0.05 0.09 0.04 0.01 0.01 0.06
0.99 0.80 0.65 0.58 0.50 0.41 0.35 0.35 0.33 0.33 0.33 0.30 0.28 0.23 0.18 0.13 0.11 0.04 0.01 0.02 0.00 0.00 0.02 0.00 0.00 0.00 0.00 0.00 0.01 0.00 0.00 0.00 0.02 0.06 0.06 0.07 0.03 0.00 0.01 0.02 0.02 0.02 0.02 0.00 0.01 0.05 0.17
0.89 0.81 0.82 0.81 0.78 0.72 0.58 0.51 0.47 0.40 0.35 0.30 0.23 0.26 0.26 0.19 0.12 0.03 0.05 0.03 0.01 0.00 0.07 0.00 0.00 0.03 0.04 0.01 0.01 0.00 0.00 0.00 0.01 0.01 0.02 0.04 0.00 0.01 0.04 0.04 0.04 0.06 0.02 0.01 0.02 0.17 0.20
0.69 0.64 0.66 0.64 0.64 0.65 0.60 0.52 0.46 0.40 0.35 0.29 0.24 0.20 0.23 0.24 0.09 0.08 0.06 0.03 0.01 0.09 0.19 0.00 0.01 0.04 0.01 0.01 0.01 0.01 0.00 0.01 0.02 0.01 0.04 0.06 0.01 0.02 0.03 0.02 0.02 0.02 0.01 0.04 0.09 0.12 0.17
0.64 0.56 0.59 0.62 0.60 0.55 0.48 0.50 0.48 0.31 0.26 0.20 0.19 0.24 0.39 0.21 0.08 0.05 0.02 0.05 0.18 0.49 0.26 0.00 0.01 0.02 0.02 0.00 0.00 0.00 0.00 0.01 0.01 0.02 0.02 0.02 0.02 0.07 0.05 0.01 0.02 0.06 0.06 0.20 0.22 0.17 0.24
0.60 0.54 0.52 0.55 0.57 0.60 0.59 0.49 0.40 0.34 0.30 0.30 0.31 0.32 0.35 0.14 0.11 0.05 0.07 0.36 0.83 0.55 0.03 0.00 0.01 0.00 0.02 0.05 0.06 0.08 0.08 0.12 0.10 0.06 0.08 0.07 0.08 0.02 0.01 0.05 0.03 0.06 0.16 0.37 0.52 0.43 0.16
0.73 0.61 0.55 0.53 0.47 0.47 0.47 0.46 0.43 0.43 0.40 0.43 0.49 0.51 0.34 0.16 0.11 0.11 0.42 0.98 0.98 0.08 0.01 0.00 0.00 0.01 0.13 0.20 0.17 0.18 0.09 0.08 0.03 0.02 0.08 0.16 0.24 0.05 0.01 0.02 0.03 0.06 0.15 0.32 0.70 0.53 0.27
0.79 0.70 0.63 0.55 0.47 0.44 0.42 0.41 0.42 0.46 0.55 0.71 0.99 0.64 0.44 0.18 0.16 0.33 1.16 1.45 0.27 0.02 0.03 0.02 0.03 0.12 0.25 0.15 0.23 0.19 0.06 0.08 0.02 0.02 0.27 0.36 0.43 0.03 0.02 0.03 0.03 0.03 0.08 0.11 0.54 0.53 0.76
0.99 0.92 0.81 0.70 0.62 0.55 0.54 0.51 0.50 0.56 0.70 0.91 0.97 0.99 0.46 0.20 0.39 0.81 1.59 0.78 0.08 0.01 0.01 0.05 0.34 0.30 0.33 0.16 0.21 0.15 0.13 0.07 0.04 0.01 0.12 0.39 0.86 0.07 0.06 0.07 0.04 0.03 0.09 0.44 0.88 1.15 0.84
1.17 1.05 0.91 0.75 0.68 0.63 0.58 0.61 0.67 0.69 1.00 1.08 1.18 1.41 0.56 0.40 1.33 2.06 1.46 0.27 0.01 0.00 0.02 0.14 0.39 0.35 0.33 0.43 0.35 0.47 0.46 0.22 0.05 0.12 0.13 0.25 0.88 0.19 0.04 0.14 0.03 0.02 0.13 0.39 0.62 0.38 0.98
1.41 1.20 1.08 0.88 0.78 0.76 0.72 0.74 0.85 1.00 1.36 1.92 2.17 1.64 0.71 0.98 2.08 1.76 0.62 0.10 0.03 0.01 0.00 0.04 0.23 0.44 0.53 0.57 0.55 1.09 0.61 0.33 0.04 0.18 0.23 0.08 0.35 0.11 0.04 0.03 0.03 0.03 0.05 0.20 0.78 0.77 1.08
1.70 1.47 1.24 1.09 0.96 0.95 0.85 0.91 1.03 1.29 1.73 2.18 2.97 1.95 1.68 1.51 1.59 0.73 0.26 0.09 0.05 0.03 0.03 0.04 0.10 0.45 0.64 0.68 0.84 0.74 0.67 0.20 0.01 0.03 0.10 0.19 0.41 0.36 0.28 0.19 0.38 0.21 0.13 0.21 0.46 0.90 1.53
1.77 1.62 1.38 1.29 1.22 1.16 1.03 1.04 1.23 1.49 1.93 2.76 3.67 2.75 3.36 3.59 1.22 0.34 0.32 0.24 0.17 0.03 0.13 0.10 0.17 0.47 0.56 0.54 0.47 0.61 0.62 0.20 0.07 0.02 0.05 0.26 0.57 0.59 0.66 0.66 0.78 0.64 0.53 0.43 0.93 1.53 1.07
2.04 1.76 1.50 1.38 1.39 1.35 1.27 1.17 1.28 1.76 2.33 3.90 5.10 2.35 1.23 1.92 1.41 0.61 0.50 0.60 0.47 0.37 0.21 0.19 0.29 0.26 0.29 0.46 0.30 0.29 0.39 0.27 0.17 0.06 0.10 0.31 0.98 0.64 0.59 0.66 0.48 0.72 1.16 1.18 0.90 0.78 0.90
2.03 1.85 1.66 1.50 1.42 1.55 1.43 1.36 1.31 1.73 3.22 5.81 5.26 1.37 0.65 0.40 0.26 0.55 0.90 0.82 0.37 0.19 0.21 0.20 0.18 0.11 0.19 0.25 0.24 0.17 0.24 0.39 0.34 0.17 0.28 0.31 0.87 0.92 0.73 0.63 0.41 0.63 0.94 0.65 0.63 0.97 0.87
2.21 2.01 1.96 1.75 1.64 1.67 1.84 1.66 1.55 1.78 3.96 7.46 4.36 0.97 1.12 0.81 0.38 0.69 0.64 0.38 0.27 0.26 0.36 0.16 0.14 0.26 0.23 0.12 0.20 0.23 0.19 0.25 0.22 0.23 0.30 0.38 0.57 0.67 0.56 0.27 0.25 0.74 0.87 0.50 0.30 0.28 0.26
2.26 2.13 1.95 2.20 1.89 1.80 1.79 1.88 1.98 2.08 3.06 4.22 2.90 1.05 1.64 1.58 0.84 0.49 0.26 0.25 0.25 0.38 0.39 0.23 0.31 0.39 0.24 0.20 0.36 0.46 0.36 0.21 0.21 0.18 0.29 0.46 0.45 0.76 0.64 0.53 1.10 0.74 0.28 0.15 0.04 0.06 0.07
1.96 2.06 1.77 1.95 2.19 1.94 1.71 1.73 2.18 2.21 2.19 2.54 2.08 1.58 1.74 1.40 0.42 0.30 0.27 0.24 0.20 0.26 0.45 0.29 0.25 0.30 0.36 0.46 0.89 0.76 0.58 0.45 0.18 0.22 0.23 0.24 0.47 0.87 0.87 0.54 0.54 0.27 0.09 0.05 0.10 0.12 0.08
1.87 1.82 1.56 1.73 1.92 2.19 1.89 1.71 1.96 2.27 2.22 2.49 2.00 2.06 2.40 2.05 0.71 0.17 0.27 0.33 0.44 0.45 0.43 0.20 0.26 0.22 0.32 0.61 0.93 0.95 0.60 0.40 0.27 0.26 0.23 0.42 0.50 0.99 1.06 0.77 0.49 0.20 0.06 0.03 0.04 0.19 0.08
2.36 1.90 1.56 1.58 1.54 2.02 2.29 1.91 1.58 1.98 2.40 2.68 2.27 1.89 3.42 3.16 0.75 0.30 0.34 0.28 0.31 0.50 0.73 0.52 0.53 0.52 0.50 0.84 0.89 0.50 0.36 0.21 0.37 0.29 0.29 0.39 0.76 1.08 1.01 0.94 0.30 0.05 0.09 0.09 0.31 0.45 0.11
2.41 2.26 1.54 1.40 1.40 1.49 1.77 2.16 1.87 1.78 2.35 3.20 2.58 1.59 2.50 2.98 1.06 0.51 0.41 0.46 0.29 0.39 0.70 0.71 0.99 1.15 1.26 1.13 0.72 0.45 0.30 0.18 0.34 0.32 0.25 0.25 0.45 0.53 0.81 0.97 0.47 0.13 0.28 0.40 0.41 0.19 0.09
1.96 2.32 1.49 1.31 1.32 1.40 1.30 1.53 2.00 1.95 2.32 3.36 3.31 1.73 2.03 2.84 1.77 0.76 0.39 0.34 0.29 0.26 0.52 0.72 0.88 0.66 0.86 1.15 0.81 0.68 0.59 0.41 0.27 0.58 0.30 0.59 0.32 0.35 0.33 0.42 0.41 0.34 0.45 0.37 0.20 0.24 0.24

GFSGBSN_prec_precacc_171.txt.gz
Total_Precipitation_Accumulation
0.43 0.41 0.39 0.34 0.32 0.26 0.23 0.22 0.18 0.12 0.07 0.05 0.04 0.04 0.03 0.03 0.03 0.03 0.02 0.02 0.02 0.02 0.02 0.02 0.02 0.02 0.01 0.00 0.00 0.00 0.00 0.00 0.00 0.00 0.00 0.00 0.00 0.00 0.00 0.00 0.00 0.00 0.00 0.00 0.00 0.03 0.02
0.41 0.43 0.44 0.41 0.39 0.36 0.31 0.25 0.17 0.12 0.08 0.06 0.04 0.04 0.02 0.03 0.03 0.03 0.03 0.02 0.02 0.02 0.02 0.02 0.02 0.03 0.00 0.00 0.00 0.00 0.00 0.00 0.00 0.00 0.00 0.00 0.00 0.00 0.00 0.00 0.00 0.00 0.00 0.00 0.00 0.02 0.02
0.73 0.53 0.39 0.33 0.29 0.27 0.25 0.23 0.23 0.24 0.21 0.15 0.11 0.06 0.04 0.03 0.03 0.03 0.02 0.02 0.02 0.02 0.03 0.02 0.02 0.02 0.00 0.00 0.00 0.00 0.00 0.00 0.00 0.00 0.00 0.00 0.00 0.00 0.00 0.00 0.00 0.00 0.00 0.00 0.00 0.01 0.02
1.29 1.04 0.91 0.89 0.82 0.67 0.53 0.45 0.39 0.31 0.25 0.20 0.13 0.08 0.06 0.04 0.03 0.03 0.02 0.02 0.02 0.02 0.03 0.04 0.04 0.02 0.00 0.00 0.00 0.00 0.00 0.00 0.00 0.00 0.00 0.00 0.00 0.00 0.00 0.00 0.00 0.00 0.00 0.00 0.02 0.00 0.02
1.21 1.24 1.17 1.05 0.92 0.89 0.87 0.79 0.74 0.68 0.60 0.49 0.39 0.29 0.19 0.09 0.07 0.05 0.03 0.02 0.02 0.03 0.04 0.04 0.02 0.01 0.00 0.00 0.00 0.00 0.00 0.02 0.01 0.00 0.00 0.00 0.00 0.00 0.00 0.00 0.00 0.00 0.00 0.00 0.00 0.00 0.01
0.84 0.80 0.74 0.79 0.75 0.73 0.69 0.66 0.66 0.69 0.74 0.65 0.59 0.54 0.39 0.22 0.14 0.07 0.03 0.02 0.02 0.02 0.02 0.00 0.01 0.01 0.00 0.00 0.00 0.00 0.00 0.01 0.02 0.00 0.00 0.00 0.00 0.00 0.00 0.00 0.00 0.00 0.00 0.00 0.00 0.00 0.00
0.75 0.73 0.70 0.66 0.59 0.52 0.46 0.42 0.40 0.41 0.47 0.47 0.47 0.44 0.39 0.30 0.20 0.13 0.04 0.01 0.01 0.00 0.00 0.00 0.00 0.00 0.00 0.00 0.00 0.00 0.00 0.00 0.00 0.00 0.00 0.01 0.00 0.01 0.00 0.00 0.01 0.01 0.01 0.03 0.01 0.00 0.00
0.76 0.70 0.61 0.53 0.45 0.42 0.42 0.45 0.44 0.41 0.38 0.35 0.28 0.24 0.21 0.22 0.18 0.07 0.02 0.00 0.00 0.03 0.06 0.00 0.00 0.00 0.00 0.00 0.00 0.00 0.00 0.00 0.01 0.05 0.02 0.04 0.04 0.01 0.00 0.01 0.03 0.05 0.09 0.04 0.01 0.01 0.06
1.05 0.87 0.73 0.65 0.56 0.46 0.40 0.40 0.39 0.38 0.36 0.32 0.30 0.24 0.19 0.13 0.11 0.04 0.01 0.02 0.00 0.00 0.02 0.00 0.00 0.00 0.00 0.00 0.01 0.00 0.00 0.00 0.02 0.06 0.06 0.07 0.03 0.00 0.01 0.02 0.02 0.02 0.02 0.00 0.01 0.05 0.17
1.00 0.89 0.87 0.86 0.82 0.77 0.66 0.57 0.51 0.43 0.38 0.32 0.25 0.27 0.26 0.19 0.12 0.03 0.05 0.03 0.01 0.00 0.07 0.00 0.00 0.03 0.04 0.01 0.01 0.00 0.00 0.00 0.01 0.01 0.02 0.04 0.00 0.01 0.04 0.04 0.04 0.06 0.02 0.01 0.02 0.17 0.20
0.82 0.77 0.74 0.71 0.72 0.75 0.73 0.68 0.57 0.49 0.42 0.35 0.27 0.21 0.23 0.24 0.09 0.08 0.07 0.03 0.01 0.09 0.19 0.00 0.01 0.04 0.01 0.01 0.01 0.01 0.00 0.01 0.02 0.01 0.04 0.06 0.01 0.02 0.03 0.02 0.02 0.02 0.01 0.04 0.09 0.12 0.17
0.69 0.65 0.71 0.72 0.66 0.60 0.53 0.55 0.57 0.39 0.31 0.24 0.21 0.25 0.39 0.21 0.08 0.05 0.02 0.05 0.20 0.56 0.30 0.00 0.01 0.02 0.02 0.00 0.00 0.00 0.00 0.01 0.01 0.02 0.02 0.02 0.02 0.07 0.05 0.01 0.02 0.06 0.06 0.20 0.22 0.17 0.24
0.61 0.55 0.54 0.58 0.62 0.66 0.69 0.63 0.49 0.49 0.44 0.35 0.36 0.35 0.36 0.14 0.12 0.05 0.07 0.39 0.95 0.65 0.03 0.00 0.01 0.00 0.02 0.05 0.06 0.08 0.08 0.12 0.10 0.06 0.08 0.07 0.08 0.02 0.01 0.05 0.03 0.06 0.16 0.37 0.52 0.43 0.16
0.73 0.61 0.56 0.54 0.48 0.50 0.56 0.60 0.56 0.56 0.57 0.63 0.60 0.56 0.35 0.16 0.12 0.11 0.43 1.11 1.16 0.09 0.01 0.00 0.00 0.01 0.13 0.20 0.17 0.18 0.09 0.08 0.03 0.02 0.08 0.16 0.24 0.05 0.01 0.02 0.03 0.06 0.15 0.32 0.70 0.53 0.27
0.80 0.71 0.63 0.55 0.48 0.46 0.45 0.49 0.55 0.60 0.69 0.85 1.24 0.83 0.49 0.19 0.18 0.34 1.19 1.59 0.32 0.02 0.03 0.02 0.03 0.12 0.25 0.15 0.23 0.19 0.06 0.08 0.02 0.02 0.27 0.36 0.43 0.03 0.02 0.03 0.03 0.03 0.08 0.11 0.55 0.53 0.76
1.00 0.93 0.81 0.70 0.62 0.55 0.54 0.52 0.53 0.63 0.82 1.08 1.17 1.21 0.63 0.22 0.40 0.85 1.69 0.83 0.08 0.01 0.01 0.05 0.34 0.30 0.33 0.16 0.22 0.15 0.13 0.08 0.04 0.01 0.12 0.39 0.86 0.07 0.06 0.07 0.04 0.03 0.09 0.45 0.94 1.24 0.86
1.18 1.06 0.92 0.75 0.69 0.63 0.59 0.62 0.67 0.70 1.04 1.19 1.39 1.67 0.67 0.44 1.45 2.32 1.56 0.28 0.01 0.00 0.02 0.14 0.40 0.37 0.34 0.44 0.35 0.47 0.47 0.23 0.05 0.12 0.13 0.25 0.88 0.19 0.04 0.14 0.03 0.02 0.13 0.39 0.63 0.40 1.01
1.41 1.21 1.08 0.88 0.78 0.77 0.72 0.75 0.85 1.00 1.37 1.98 2.27 1.80 0.79 1.03 2.38 2.09 0.77 0.11 0.03 0.01 0.00 0.04 0.24 0.47 0.57 0.61 0.57 1.10 0.62 0.36 0.05 0.18 0.23 0.08 0.35 0.11 0.04 0.03 0.03 0.03 0.05 0.20 0.80 0.80 1.10
1.72 1.48 1.25 1.09 0.96 0.95 0.85 0.92 1.03 1.29 1.74 2.26 3.04 2.01 1.73 1.59 1.84 0.94 0.33 0.11 0.07 0.03 0.03 0.04 0.10 0.45 0.64 0.70 0.90 0.75 0.67 0.21 0.03 0.04 0.11 0.21 0.43 0.37 0.28 0.19 0.39 0.21 0.13 0.21 0.47 0.92 1.56
1.80 1.65 1.40 1.29 1.22 1.17 1.04 1.05 1.23 1.49 1.94 2.81 3.75 2.81 3.40 3.74 1.29 0.38 0.35 0.29 0.23 0.05 0.13 0.10 0.17 0.47 0.56 0.54 0.48 0.63 0.62 0.20 0.07 0.03 0.06 0.28 0.61 0.60 0.67 0.67 0.83 0.69 0.54 0.43 0.97 1.61 1.10
2.07 1.79 1.53 1.41 1.40 1.35 1.28 1.17 1.29 1.76 2.34 3.94 5.18 2.44 1.28 1.98 1.53 0.65 0.52 0.63 0.49 0.38 0.23 0.20 0.30 0.26 0.29 0.47 0.30 0.29 0.39 0.27 0.17 0.06 0.11 0.35 1.05 0.65 0.60 0.66 0.48 0.72 1.16 1.18 0.91 0.80 0.95
2.05 1.87 1.69 1.53 1.45 1.56 1.44 1.37 1.31 1.75 3.23 5.86 5.31 1.42 0.70 0.46 0.30 0.62 1.00 0.93 0.41 0.22 0.25 0.23 0.20 0.11 0.20 0.27 0.25 0.17 0.25 0.39 0.34 0.17 0.28 0.31 0.88 0.93 0.73 0.63 0.41 0.63 0.95 0.65 0.63 0.97 0.87
2.24 2.03 1.99 1.78 1.67 1.69 1.85 1.67 1.56 1.79 3.97 7.47 4.40 1.02 1.21 0.85 0.42 0.75 0.70 0.41 0.31 0.31 0.43 0.20 0.19 0.30 0.25 0.15 0.22 0.25 0.21 0.25 0.22 0.23 0.31 0.42 0.61 0.70 0.58 0.27 0.26 0.78 0.87 0.50 0.30 0.28 0.26
2.29 2.17 1.98 2.23 1.91 1.83 1.81 1.90 1.99 2.09 3.06 4.23 2.95 1.13 1.72 1.68 0.93 0.56 0.31 0.29 0.31 0.43 0.50 0.30 0.37 0.48 0.31 0.24 0.37 0.46 0.36 0.21 0.21 0.18 0.30 0.48 0.47 0.78 0.66 0.54 1.13 0.74 0.28 0.15 0.04 0.06 0.07
1.98 2.10 1.83 2.01 2.23 1.97 1.75 1.76 2.18 2.22 2.19 2.54 2.10 1.63 1.81 1.42 0.46 0.36 0.34 0.30 0.23 0.32 0.53 0.35 0.26 0.31 0.41 0.50 0.91 0.81 0.62 0.48 0.18 0.22 0.23 0.25 0.50 0.92 0.92 0.57 0.55 0.27 0.09 0.05 0.10 0.12 0.08
1.87 1.83 1.57 1.77 1.95 2.23 1.93 1.75 1.98 2.28 2.22 2.51 2.01 2.06 2.41 2.07 0.71 0.18 0.29 0.36 0.46 0.47 0.46 0.24 0.29 0.23 0.35 0.62 0.96 0.99 0.64 0.45 0.30 0.29 0.25 0.45 0.54 1.06 1.11 0.81 0.50 0.20 0.06 0.05 0.06 0.21 0.08
2.37 1.90 1.56 1.59 1.56 2.05 2.34 1.96 1.61 2.00 2.41 2.70 2.30 1.90 3.42 3.16 0.75 0.30 0.34 0.28 0.31 0.50 0.74 0.55 0.55 0.53 0.57 0.92 0.92 0.52 0.37 0.22 0.39 0.30 0.33 0.47 0.84 1.17 1.10 1.10 0.42 0.06 0.09 0.10 0.33 0.47 0.11
2.45 2.27 1.55 1.40 1.40 1.50 1.81 2.24 2.01 1.82 2.37 3.22 2.61 1.61 2.50 2.98 1.06 0.51 0.41 0.46 0.29 0.39 0.71 0.73 1.00 1.16 1.33 1.40 0.98 0.58 0.38 0.25 0.39 0.34 0.27 0.28 0.51 0.59 0.89 1.04 0.52 0.16 0.33 0.43 0.45 0.20 0.10
2.01 2.37 1.51 1.31 1.33 1.41 1.33 1.55 2.16 2.21 2.40 3.40 3.34 1.76 2.04 2.86 1.77 0.76 0.39 0.34 0.29 0.26 0.52 0.72 0.88 0.67 0.88 1.20 0.90 0.74 0.62 0.44 0.34 0.70 0.37 0.62 0.34 0.39 0.42 0.53 0.47 0.37 0.46 0.37 0.20 0.24 0.24

GFSGBSN_prec_precacc_177.txt.gz
Total_Precipitation_Accumulation
0.43 0.41 0.39 0.34 0.32 0.26 0.23 0.22 0.18 0.12 0.07 0.05 0.04 0.04 0.03 0.03 0.03 0.03 0.02 0.02 0.02 0.02 0.02 0.02 0.02 0.02 0.01 0.00 0.00 0.00 0.00 0.00 0.00 0.00 0.00 0.00 0.00 0.00 0.00 0.00 0.00 0.00 0.00 0.00 0.00 0.03 0.02
0.41 0.43 0.44 0.41 0.39 0.36 0.31 0.25 0.17 0.12 0.08 0.06 0.04 0.04 0.02 0.03 0.03 0.03 0.03 0.02 0.02 0.02 0.02 0.02 0.02 0.03 0.00 0.00 0.00 0.00 0.00 0.00 0.00 0.00 0.00 0.00 0.00 0.00 0.00 0.00 0.00 0.00 0.00 0.00 0.00 0.02 0.02
0.73 0.53 0.39 0.33 0.29 0.27 0.25 0.23 0.23 0.24 0.21 0.15 0.11 0.06 0.04 0.03 0.03 0.03 0.02 0.02 0.02 0.02 0.03 0.02 0.02 0.02 0.00 0.00 0.00 0.00 0.00 0.00 0.00 0.00 0.00 0.00 0.00 0.00 0.00 0.00 0.00 0.00 0.00 0.00 0.00 0.01 0.02
1.29 1.04 0.91 0.89 0.82 0.67 0.53 0.45 0.39 0.31 0.25 0.20 0.13 0.08 0.06 0.04 0.03 0.03 0.02 0.02 0.02 0.02 0.03 0.04 0.04 0.02 0.00 0.00 0.00 0.00 0.00 0.00 0.00 0.00 0.00 0.00 0.00 0.00 0.00 0.00 0.00 0.00 0.00 0.00 0.02 0.00 0.02
1.21 1.24 1.17 1.05 0.92 0.89 0.87 0.79 0.74 0.68 0.60 0.49 0.39 0.29 0.19 0.09 0.07 0.05 0.03 0.02 0.02 0.03 0.04 0.04 0.02 0.01 0.00 0.00 0.00 0.00 0.00 0.02 0.01 0.00 0.00 0.00 0.00 0.00 0.00 0.00 0.00 0.00 0.00 0.00 0.00 0.00 0.01
0.93 0.87 0.80 0.83 0.78 0.75 0.71 0.66 0.67 0.69 0.74 0.66 0.59 0.55 0.39 0.22 0.15 0.07 0.03 0.02 0.02 0.02 0.02 0.00 0.01 0.01 0.00 0.00 0.00 0.00 0.00 0.01 0.02 0.00 0.00 0.00 0.00 0.00 0.00 0.00 0.00 0.00 0.00 0.00 0.00 0.00 0.00
0.93 0.86 0.82 0.82 0.76 0.66 0.59 0.53 0.49 0.49 0.51 0.50 0.48 0.46 0.42 0.33 0.23 0.15 0.05 0.01 0.01 0.01 0.00 0.00 0.00 0.00 0.00 0.00 0.00 0.00 0.00 0.00 0.00 0.00 0.00 0.01 0.00 0.01 0.00 0.00 0.01 0.01 0.01 0.03 0.01 0.00 0.00
0.90 0.84 0.73 0.65 0.57 0.55 0.56 0.60 0.59 0.56 0.52 0.45 0.34 0.29 0.26 0.26 0.20 0.09 0.02 0.00 0.00 0.03 0.06 0.00 0.00 0.00 0.00 0.00 0.00 0.00 0.00 0.00 0.01 0.05 0.02 0.04 0.04 0.01 0.00 0.01 0.03 0.05 0.09 0.04 0.01 0.01 0.06
1.17 1.02 0.87 0.74 0.65 0.55 0.48 0.48 0.46 0.44 0.43 0.40 0.37 0.32 0.24 0.16 0.13 0.05 0.01 0.02 0.00 0.00 0.02 0.00 0.00 0.00 0.00 0.00 0.01 0.00 0.00 0.00 0.02 0.06 0.06 0.07 0.03 0.00 0.01 0.02 0.02 0.02 0.02 0.00 0.01 0.05 0.17
1.12 1.01 1.00 0.97 0.90 0.84 0.74 0.66 0.59 0.48 0.43 0.37 0.30 0.32 0.31 0.22 0.13 0.03 0.05 0.03 0.01 0.00 0.07 0.00 0.00 0.03 0.04 0.01 0.01 0.00 0.00 0.00 0.01 0.01 0.02 0.04 0.00 0.01 0.04 0.04 0.04 0.06 0.02 0.01 0.02 0.17 0.20
0.96 0.92 0.90 0.86 0.83 0.83 0.80 0.77 0.70 0.62 0.53 0.44 0.35 0.29 0.29 0.28 0.11 0.09 0.09 0.05 0.02 0.15 0.34 0.00 0.01 0.04 0.01 0.01 0.01 0.01 0.00 0.01 0.02 0.01 0.04 0.06 0.01 0.02 0.03 0.02 0.02 0.02 0.01 0.04 0.09 0.12 0.17
0.86 0.85 0.94 0.97 0.88 0.75 0.63 0.64 0.66 0.51 0.43 0.35 0.30 0.32 0.44 0.24 0.11 0.07 0.05 0.09 0.29 0.84 0.50 0.00 0.01 0.02 0.02 0.00 0.00 0.00 0.00 0.01 0.01 0.02 0.02 0.02 0.02 0.07 0.05 0.01 0.02 0.06 0.06 0.20 0.22 0.18 0.27
0.70 0.68 0.69 0.76 0.83 0.88 0.88 0.78 0.63 0.64 0.66 0.53 0.48 0.44 0.42 0.17 0.14 0.06 0.11 0.60 1.40 0.99 0.04 0.00 0.01 0.00 0.02 0.05 0.06 0.08 0.08 0.12 0.10 0.06 0.08 0.07 0.08 0.02 0.01 0.05 0.03 0.06 0.16 0.37 0.54 0.45 0.20
0.83 0.68 0.60 0.58 0.53 0.58 0.67 0.74 0.73 0.73 0.77 0.90 0.94 0.90 0.57 0.19 0.15 0.14 0.52 1.59 1.73 0.16 0.01 0.00 0.00 0.01 0.13 0.20 0.17 0.18 0.09 0.08 0.03 0.02 0.08 0.16 0.24 0.05 0.01 0.02 0.03 0.06 0.15 0.32 0.70 0.53 0.27
0.89 0.82 0.72 0.60 0.51 0.48 0.48 0.54 0.64 0.74 0.88 1.14 1.61 1.27 0.97 0.35 0.27 0.48 1.38 2.12 0.53 0.03 0.03 0.03 0.04 0.13 0.25 0.15 0.23 0.19 0.07 0.08 0.03 0.03 0.27 0.36 0.43 0.03 0.02 0.03 0.03 0.03 0.08 0.11 0.57 0.56 0.78
1.04 0.99 0.88 0.77 0.66 0.56 0.55 0.52 0.55 0.69 0.92 1.30 1.58 1.68 1.03 0.33 0.56 1.25 2.28 1.16 0.10 0.01 0.01 0.05 0.37 0.32 0.34 0.16 0.24 0.15 0.13 0.08 0.05 0.03 0.13 0.39 0.86 0.07 0.06 0.07 0.04 0.03 0.10 0.55 1.20 1.60 1.05
1.21 1.09 0.95 0.79 0.72 0.64 0.59 0.62 0.67 0.71 1.10 1.35 1.74 2.33 0.95 0.59 1.79 2.96 2.30 0.50 0.02 0.00 0.03 0.15 0.42 0.43 0.36 0.44 0.43 0.51 0.53 0.24 0.05 0.12 0.13 0.25 0.88 0.19 0.04 0.14 0.03 0.02 0.15 0.44 0.73 0.58 1.21
1.44 1.23 1.11 0.91 0.81 0.79 0.74 0.76 0.86 1.01 1.39 2.07 2.47 2.25 0.94 1.26 3.08 2.96 1.25 0.18 0.03 0.01 0.03 0.07 0.25 0.49 0.60 0.62 0.59 1.15 0.67 0.46 0.09 0.18 0.23 0.09 0.37 0.12 0.04 0.03 0.03 0.04 0.09 0.22 0.92 0.94 1.20
1.75 1.51 1.27 1.11 0.98 0.97 0.88 0.94 1.06 1.33 1.77 2.36 3.18 2.13 1.81 1.82 2.38 1.49 0.62 0.18 0.09 0.04 0.06 0.14 0.13 0.46 0.66 0.76 0.99 0.83 0.73 0.27 0.10 0.12 0.16 0.24 0.49 0.38 0.28 0.19 0.39 0.24 0.19 0.27 0.55 1.06 1.70
1.84 1.69 1.43 1.32 1.25 1.20 1.07 1.09 1.28 1.54 2.00 2.94 3.90 2.99 3.48 3.93 1.57 0.51 0.53 0.51 0.41 0.17 0.16 0.17 0.26 0.49 0.58 0.57 0.52 0.68 0.66 0.24 0.08 0.05 0.10 0.32 0.68 0.64 0.68 0.67 0.86 0.74 0.57 0.46 1.05 1.75 1.21
2.12 1.83 1.57 1.43 1.42 1.38 1.30 1.21 1.33 1.82 2.42 4.08 5.39 2.57 1.36 2.09 1.61 0.79 0.64 0.87 0.66 0.51 0.31 0.23 0.40 0.32 0.36 0.55 0.32 0.31 0.39 0.27 0.18 0.07 0.11 0.39 1.11 0.66 0.60 0.66 0.48 0.72 1.16 1.18 0.95 0.85 1.03
2.11 1.92 1.74 1.57 1.47 1.58 1.46 1.39 1.34 1.78 3.31 5.98 5.47 1.50 0.77 0.50 0.34 0.74 1.18 1.10 0.53 0.34 0.50 0.45 0.34 0.15 0.23 0.37 0.33 0.21 0.26 0.39 0.34 0.17 0.29 0.33 0.91 0.94 0.74 0.63 0.41 0.63 0.95 0.65 0.63 0.97 0.87
2.33 2.11 2.06 1.84 1.70 1.71 1.87 1.71 1.60 1.82 3.99 7.49 4.43 1.09 1.33 0.93 0.46 0.88 0.90 0.64 0.50 0.44 0.51 0.35 0.40 0.58 0.49 0.33 0.35 0.32 0.22 0.26 0.22 0.24 0.34 0.45 0.67 0.77 0.63 0.27 0.28 0.83 0.88 0.50 0.30 0.28 0.26
2.34 2.24 2.05 2.30 1.96 1.85 1.83 1.93 2.02 2.12 3.07 4.23 2.97 1.22 1.89 1.80 0.99 0.60 0.39 0.43 0.49 0.65 0.80 0.50 0.47 0.54 0.39 0.37 0.46 0.53 0.45 0.26 0.25 0.20 0.31 0.51 0.51 0.86 0.72 0.56 1.19 0.76 0.28 0.15 0.04 0.06 0.07
2.05 2.14 1.89 2.09 2.31 2.01 1.77 1.79 2.22 2.23 2.20 2.54 2.11 1.76 2.05 1.56 0.52 0.50 0.55 0.47 0.38 0.47 0.66 0.43 0.38 0.45 0.44 0.54 0.97 0.87 0.65 0.51 0.22 0.24 0.24 0.25 0.52 0.97 0.98 0.61 0.57 0.27 0.09 0.05 0.13 0.13 0.08
1.94 1.87 1.59 1.83 2.05 2.29 1.97 1.78 2.02 2.30 2.23 2.52 2.02 2.15 2.62 2.23 0.78 0.27 0.53 0.53 0.55 0.54 0.59 0.45 0.41 0.29 0.39 0.69 1.04 1.04 0.68 0.48 0.33 0.31 0.26 0.45 0.55 1.13 1.16 0.87 0.52 0.20 0.06 0.06 0.13 0.31 0.14
2.47 1.97 1.59 1.61 1.60 2.11 2.37 1.99 1.65 2.03 2.43 2.71 2.30 1.96 3.54 3.30 0.77 0.32 0.36 0.33 0.35 0.51 0.76 0.57 0.59 0.56 0.60 1.00 1.06 0.58 0.39 0.23 0.42 0.32 0.37 0.56 0.96 1.33 1.26 1.31 0.53 0.09 0.10 0.11 0.39 0.58 0.17
2.50 2.36 1.61 1.42 1.41 1.52 1.85 2.28 2.06 1.86 2.39 3.23 2.61 1.65 2.58 3.06 1.08 0.53 0.42 0.47 0.30 0.40 0.71 0.74 1.02 1.20 1.36 1.43 1.06 0.71 0.51 0.32 0.40 0.34 0.28 0.31 0.62 0.74 1.07 1.25 0.63 0.21 0.39 0.53 0.53 0.24 0.12
2.09 2.42 1.61 1.36 1.34 1.41 1.34 1.59 2.23 2.31 2.46 3.43 3.36 1.79 2.12 2.96 1.83 0.79 0.40 0.35 0.30 0.27 0.53 0.73 0.90 0.70 0.92 1.24 0.97 0.79 0.64 0.46 0.36 0.71 0.39 0.65 0.37 0.44 0.50 0.68 0.62 0.52 0.52 0.38 0.21 0.24 0.24

GFSGBSN_prec_precacc_180.txt.gz
Total_Precipitation_Accumulation
0.43 0.41 0.39 0.34 0.32 0.26 0.23 0.22 0.18 0.12 0.07 0.05 0.04 0.04 0.03 0.03 0.03 0.03 0.02 0.02 0.02 0.02 0.02 0.02 0.02 0.02 0.01 0.00 0.00 0.00 0.00 0.00 0.00 0.00 0.00 0.00 0.00 0.00 0.00 0.00 0.00 0.00 0.00 0.00 0.00 0.03 0.02
0.41 0.43 0.44 0.41 0.39 0.36 0.31 0.25 0.17 0.12 0.08 0.06 0.04 0.04 0.02 0.03 0.03 0.03 0.03 0.02 0.02 0.02 0.02 0.02 0.02 0.03 0.00 0.00 0.00 0.00 0.00 0.00 0.00 0.00 0.00 0.00 0.00 0.00 0.00 0.00 0.00 0.00 0.00 0.00 0.00 0.02 0.02
0.73 0.53 0.39 0.33 0.29 0.27 0.25 0.23 0.23 0.24 0.21 0.15 0.11 0.06 0.04 0.03 0.03 0.03 0.02 0.02 0.02 0.02 0.03 0.02 0.02 0.02 0.00 0.00 0.00 0.00 0.00 0.00 0.00 0.00 0.00 0.00 0.00 0.00 0.00 0.00 0.00 0.00 0.00 0.00 0.00 0.01 0.02
1.29 1.04 0.91 0.89 0.82 0.67 0.53 0.45 0.39 0.31 0.25 0.20 0.13 0.08 0.06 0.04 0.03 0.03 0.02 0.02 0.02 0.02 0.03 0.04 0.04 0.02 0.00 0.00 0.00 0.00 0.00 0.00 0.00 0.00 0.00 0.00 0.00 0.00 0.00 0.00 0.00 0.00 0.00 0.00 0.02 0.00 0.02
1.22 1.24 1.17 1.06 0.92 0.89 0.87 0.79 0.74 0.68 0.60 0.49 0.39 0.29 0.19 0.09 0.07 0.05 0.03 0.02 0.02 0.03 0.04 0.04 0.02 0.01 0.00 0.00 0.00 0.00 0.00 0.02 0.01 0.00 0.00 0.00 0.00 0.00 0.00 0.00 0.00 0.00 0.00 0.00 0.00 0.00 0.01
0.96 0.92 0.85 0.88 0.83 0.79 0.73 0.67 0.67 0.69 0.74 0.66 0.59 0.55 0.39 0.22 0.15 0.08 0.03 0.02 0.02 0.02 0.02 0.00 0.01 0.01 0.00 0.00 0.00 0.00 0.00 0.01 0.02 0.00 0.00 0.00 0.00 0.00 0.00 0.00 0.00 0.00 0.00 0.00 0.00 0.00 0.00
0.94 0.88 0.84 0.83 0.77 0.68 0.61 0.56 0.51 0.51 0.53 0.51 0.49 0.47 0.43 0.34 0.23 0.16 0.05 0.01 0.01 0.01 0.00 0.00 0.00 0.00 0.00 0.00 0.00 0.00 0.00 0.00 0.00 0.00 0.00 0.01 0.00 0.01 0.00 0.00 0.01 0.01 0.01 0.03 0.01 0.00 0.00
0.91 0.85 0.75 0.67 0.59 0.57 0.58 0.61 0.60 0.57 0.53 0.46 0.36 0.30 0.27 0.28 0.22 0.10 0.03 0.01 0.01 0.03 0.06 0.00 0.00 0.00 0.00 0.00 0.00 0.00 0.00 0.00 0.01 0.05 0.02 0.04 0.04 0.01 0.00 0.01 0.03 0.05 0.09 0.04 0.01 0.01 0.06
1.18 1.03 0.89 0.77 0.67 0.57 0.49 0.49 0.47 0.46 0.44 0.40 0.38 0.33 0.26 0.19 0.15 0.06 0.02 0.02 0.00 0.00 0.02 0.00 0.00 0.00 0.00 0.00 0.01 0.00 0.00 0.00 0.02 0.06 0.06 0.07 0.03 0.00 0.01 0.02 0.02 0.02 0.02 0.00 0.01 0.05 0.17
1.15 1.05 1.04 1.01 0.94 0.87 0.76 0.68 0.60 0.49 0.43 0.38 0.31 0.33 0.31 0.23 0.14 0.04 0.06 0.03 0.01 0.02 0.10 0.00 0.00 0.03 0.04 0.01 0.01 0.00 0.00 0.00 0.01 0.01 0.02 0.04 0.00 0.01 0.04 0.04 0.04 0.06 0.02 0.01 0.02 0.17 0.20
0.97 0.94 0.95 0.93 0.91 0.91 0.88 0.82 0.75 0.66 0.55 0.46 0.36 0.30 0.30 0.29 0.12 0.10 0.10 0.06 0.06 0.25 0.53 0.00 0.01 0.04 0.01 0.01 0.01 0.01 0.00 0.01 0.02 0.01 0.04 0.06 0.01 0.02 0.03 0.02 0.02 0.02 0.01 0.04 0.09 0.12 0.17
0.88 0.86 0.97 1.01 0.94 0.84 0.73 0.72 0.73 0.57 0.48 0.41 0.36 0.39 0.47 0.25 0.11 0.08 0.06 0.11 0.37 1.06 0.69 0.00 0.01 0.02 0.02 0.00 0.00 0.00 0.00 0.01 0.01 0.02 0.02 0.02 0.02 0.07 0.05 0.01 0.02 0.06 0.06 0.20 0.22 0.18 0.28
0.71 0.70 0.72 0.79 0.86 0.91 0.92 0.84 0.70 0.71 0.73 0.62 0.57 0.57 0.58 0.20 0.14 0.06 0.14 0.70 1.65 1.21 0.06 0.00 0.01 0.00 0.02 0.05 0.06 0.08 0.08 0.12 0.10 0.06 0.08 0.07 0.08 0.02 0.01 0.05 0.03 0.06 0.16 0.37 0.54 0.47 0.23
0.84 0.71 0.66 0.62 0.55 0.59 0.67 0.75 0.75 0.77 0.83 0.99 1.05 1.01 0.76 0.33 0.19 0.18 0.64 1.93 2.04 0.20 0.01 0.00 0.00 0.01 0.13 0.20 0.17 0.18 0.09 0.08 0.03 0.02 0.08 0.16 0.24 0.05 0.01 0.02 0.03 0.06 0.16 0.32 0.71 0.54 0.27
0.93 0.84 0.77 0.67 0.56 0.51 0.49 0.55 0.65 0.75 0.91 1.21 1.71 1.36 1.07 0.45 0.36 0.73 1.62 2.54 0.74 0.03 0.03 0.03 0.04 0.13 0.25 0.15 0.23 0.19 0.07 0.08 0.03 0.03 0.27 0.36 0.43 0.03 0.02 0.03 0.03 0.03 0.08 0.11 0.58 0.57 0.79
1.06 1.02 0.92 0.81 0.71 0.61 0.58 0.54 0.57 0.70 0.94 1.33 1.63 1.78 1.09 0.36 0.65 1.68 2.86 1.50 0.14 0.01 0.01 0.06 0.38 0.32 0.34 0.16 0.24 0.16 0.14 0.08 0.05 0.04 0.13 0.40 0.87 0.07 0.06 0.07 0.04 0.03 0.11 0.59 1.27 1.69 1.11
1.22 1.10 0.97 0.83 0.78 0.71 0.64 0.65 0.70 0.72 1.11 1.38 1.77 2.38 0.96 0.60 1.92 3.36 2.89 0.78 0.03 0.00 0.03 0.16 0.45 0.46 0.37 0.44 0.43 0.52 0.55 0.25 0.05 0.12 0.14 0.26 0.89 0.20 0.04 0.15 0.04 0.03 0.16 0.52 0.86 0.75 1.35
1.46 1.25 1.14 0.95 0.85 0.84 0.81 0.82 0.91 1.05 1.42 2.11 2.50 2.26 0.94 1.27 3.23 3.37 1.57 0.30 0.04 0.01 0.03 0.08 0.26 0.50 0.60 0.63 0.60 1.16 0.70 0.47 0.10 0.19 0.24 0.10 0.39 0.13 0.05 0.04 0.06 0.09 0.14 0.28 1.02 1.03 1.29
1.77 1.54 1.29 1.13 1.00 1.00 0.92 1.02 1.13 1.38 1.83 2.42 3.25 2.14 1.81 1.86 2.47 1.63 0.79 0.33 0.17 0.10 0.08 0.19 0.18 0.47 0.66 0.76 0.99 0.84 0.83 0.44 0.21 0.21 0.26 0.28 0.52 0.40 0.28 0.20 0.40 0.31 0.28 0.39 0.72 1.23 1.82
1.85 1.71 1.46 1.34 1.27 1.22 1.09 1.11 1.30 1.56 2.04 3.04 4.04 3.07 3.49 3.96 1.61 0.56 0.60 0.62 0.56 0.32 0.27 0.28 0.39 0.55 0.63 0.62 0.53 0.68 0.67 0.28 0.13 0.12 0.23 0.46 0.76 0.64 0.68 0.67 0.86 0.74 0.57 0.46 1.07 1.81 1.26
2.13 1.85 1.59 1.44 1.44 1.39 1.32 1.22 1.35 1.84 2.47 4.28 5.62 2.67 1.37 2.11 1.65 0.83 0.68 0.97 0.74 0.59 0.43 0.31 0.60 0.46 0.42 0.64 0.38 0.33 0.39 0.28 0.19 0.08 0.12 0.41 1.15 0.66 0.60 0.66 0.48 0.72 1.16 1.18 0.95 0.85 1.03
2.15 1.94 1.76 1.59 1.49 1.60 1.47 1.41 1.36 1.80 3.35 6.15 5.65 1.57 0.78 0.50 0.34 0.81 1.39 1.31 0.65 0.43 0.65 0.57 0.45 0.21 0.29 0.49 0.46 0.35 0.35 0.44 0.37 0.18 0.29 0.33 0.92 0.95 0.76 0.63 0.41 0.64 0.95 0.65 0.63 0.97 0.87
2.39 2.17 2.09 1.86 1.72 1.72 1.89 1.73 1.62 1.85 4.02 7.53 4.46 1.10 1.38 0.96 0.46 0.89 0.93 0.74 0.62 0.62 0.67 0.51 0.55 0.75 0.65 0.45 0.43 0.39 0.33 0.39 0.33 0.30 0.35 0.46 0.67 0.77 0.64 0.27 0.30 0.90 0.88 0.50 0.30 0.28 0.26
2.39 2.29 2.10 2.33 1.98 1.87 1.86 1.96 2.04 2.14 3.08 4.23 2.97 1.23 1.93 1.82 0.99 0.61 0.39 0.45 0.52 0.67 0.89 0.53 0.52 0.65 0.47 0.40 0.48 0.56 0.47 0.32 0.33 0.25 0.35 0.52 0.52 0.88 0.73 0.57 1.22 0.77 0.28 0.15 0.04 0.06 0.07
2.07 2.17 1.92 2.11 2.33 2.03 1.80 1.82 2.24 2.26 2.21 2.54 2.11 1.77 2.07 1.62 0.55 0.51 0.55 0.47 0.38 0.50 0.71 0.50 0.46 0.53 0.59 0.67 1.01 0.90 0.69 0.54 0.24 0.28 0.27 0.28 0.56 0.99 0.98 0.61 0.57 0.27 0.09 0.05 0.13 0.13 0.08
1.96 1.92 1.66 1.87 2.08 2.32 1.99 1.81 2.05 2.33 2.25 2.52 2.02 2.16 2.63 2.32 0.87 0.31 0.59 0.63 0.60 0.56 0.65 0.51 0.45 0.33 0.53 0.81 1.08 1.04 0.69 0.50 0.33 0.31 0.26 0.46 0.58 1.20 1.18 0.88 0.52 0.20 0.06 0.06 0.14 0.31 0.14
2.50 2.00 1.65 1.67 1.62 2.13 2.40 2.01 1.68 2.05 2.45 2.72 2.30 1.96 3.54 3.34 0.81 0.39 0.40 0.38 0.43 0.53 0.77 0.58 0.59 0.56 0.62 1.01 1.08 0.61 0.40 0.24 0.43 0.34 0.38 0.56 0.97 1.36 1.27 1.33 0.53 0.09 0.11 0.12 0.40 0.58 0.17
2.53 2.39 1.64 1.51 1.45 1.53 1.87 2.31 2.09 1.89 2.42 3.27 2.61 1.65 2.59 3.07 1.08 0.54 0.44 0.47 0.30 0.40 0.71 0.74 1.02 1.20 1.36 1.43 1.07 0.71 0.51 0.32 0.40 0.35 0.30 0.34 0.68 0.78 1.11 1.33 0.69 0.22 0.40 0.55 0.54 0.24 0.12
2.12 2.44 1.63 1.39 1.41 1.43 1.35 1.62 2.26 2.33 2.47 3.45 3.36 1.79 2.12 2.96 1.83 0.80 0.41 0.35 0.30 0.27 0.53 0.73 0.90 0.70 0.92 1.24 0.97 0.79 0.64 0.46 0.37 0.71 0.39 0.66 0.38 0.45 0.51 0.69 0.66 0.53 0.52 0.39 0.21 0.24 0.24

GFSGBSN_prec_precacc_183.txt.gz
Total_Precipitation_Accumulation
0.43 0.41 0.39 0.34 0.32 0.26 0.23 0.22 0.18 0.12 0.07 0.05 0.04 0.04 0.03 0.03 0.03 0.03 0.02 0.02 0.02 0.02 0.02 0.02 0.02 0.02 0.01 0.00 0.00 0.00 0.00 0.00 0.00 0.00 0.00 0.00 0.00 0.00 0.00 0.00 0.00 0.00 0.00 0.00 0.00 0.03 0.02
0.41 0.43 0.44 0.41 0.39 0.36 0.31 0.25 0.17 0.12 0.08 0.06 0.04 0.04 0.02 0.03 0.03 0.03 0.03 0.02 0.02 0.02 0.02 0.02 0.02 0.03 0.00 0.00 0.00 0.00 0.00 0.00 0.00 0.00 0.00 0.00 0.00 0.00 0.00 0.00 0.00 0.00 0.00 0.00 0.00 0.02 0.02
0.73 0.53 0.39 0.33 0.29 0.27 0.25 0.23 0.23 0.24 0.21 0.15 0.11 0.06 0.04 0.03 0.03 0.03 0.02 0.02 0.02 0.02 0.03 0.02 0.02 0.02 0.00 0.00 0.00 0.00 0.00 0.00 0.00 0.00 0.00 0.00 0.00 0.00 0.00 0.00 0.00 0.00 0.00 0.00 0.00 0.01 0.02
1.29 1.04 0.91 0.89 0.82 0.67 0.53 0.45 0.39 0.31 0.25 0.20 0.13 0.08 0.06 0.04 0.03 0.03 0.02 0.02 0.02 0.02 0.03 0.04 0.04 0.02 0.00 0.00 0.00 0.00 0.00 0.00 0.00 0.00 0.00 0.00 0.00 0.00 0.00 0.00 0.00 0.00 0.00 0.00 0.02 0.00 0.02
1.24 1.26 1.19 1.07 0.94 0.90 0.89 0.80 0.75 0.69 0.60 0.49 0.39 0.29 0.19 0.09 0.07 0.05 0.03 0.02 0.02 0.03 0.04 0.05 0.02 0.01 0.00 0.00 0.00 0.00 0.00 0.02 0.01 0.00 0.00 0.00 0.00 0.00 0.00 0.00 0.00 0.00 0.00 0.00 0.00 0.00 0.01
0.99 0.94 0.87 0.90 0.84 0.80 0.75 0.70 0.69 0.71 0.75 0.67 0.60 0.55 0.39 0.22 0.15 0.08 0.03 0.02 0.02 0.02 0.02 0.00 0.02 0.01 0.00 0.00 0.00 0.00 0.00 0.01 0.02 0.00 0.00 0.00 0.00 0.00 0.00 0.00 0.00 0.00 0.00 0.00 0.00 0.00 0.00
0.94 0.88 0.84 0.83 0.77 0.68 0.61 0.56 0.51 0.51 0.53 0.52 0.50 0.47 0.43 0.34 0.24 0.16 0.05 0.02 0.02 0.01 0.00 0.00 0.00 0.00 0.00 0.00 0.00 0.00 0.00 0.00 0.00 0.00 0.00 0.01 0.00 0.01 0.00 0.00 0.01 0.01 0.01 0.03 0.01 0.00 0.00
0.91 0.86 0.76 0.67 0.59 0.57 0.58 0.62 0.61 0.57 0.53 0.46 0.36 0.30 0.27 0.28 0.23 0.11 0.03 0.01 0.01 0.04 0.06 0.00 0.00 0.00 0.00 0.00 0.00 0.00 0.00 0.00 0.01 0.05 0.02 0.04 0.04 0.01 0.00 0.01 0.03 0.05 0.09 0.04 0.01 0.01 0.06
1.20 1.04 0.90 0.78 0.69 0.59 0.51 0.50 0.48 0.46 0.44 0.40 0.38 0.33 0.26 0.19 0.15 0.06 0.02 0.03 0.01 0.01 0.05 0.00 0.00 0.00 0.00 0.00 0.01 0.00 0.00 0.00 0.02 0.06 0.06 0.07 0.03 0.00 0.01 0.02 0.02 0.02 0.02 0.00 0.01 0.05 0.17
1.17 1.07 1.07 1.04 0.97 0.90 0.80 0.72 0.63 0.51 0.44 0.38 0.31 0.33 0.31 0.23 0.14 0.04 0.06 0.03 0.01 0.03 0.18 0.01 0.00 0.03 0.04 0.01 0.01 0.00 0.00 0.00 0.01 0.01 0.02 0.04 0.00 0.01 0.04 0.04 0.04 0.06 0.02 0.01 0.02 0.17 0.20
1.01 0.97 0.97 0.95 0.95 0.95 0.93 0.89 0.81 0.73 0.61 0.49 0.37 0.30 0.30 0.29 0.12 0.10 0.10 0.06 0.06 0.30 0.76 0.02 0.01 0.04 0.01 0.01 0.01 0.01 0.00 0.01 0.02 0.01 0.04 0.06 0.01 0.02 0.03 0.02 0.02 0.02 0.01 0.04 0.09 0.12 0.17
0.93 0.91 1.00 1.04 0.97 0.87 0.77 0.77 0.79 0.62 0.55 0.49 0.42 0.42 0.52 0.26 0.12 0.08 0.06 0.12 0.46 1.31 0.90 0.01 0.01 0.02 0.02 0.00 0.00 0.00 0.00 0.01 0.01 0.02 0.02 0.02 0.02 0.07 0.05 0.01 0.02 0.06 0.06 0.20 0.22 0.18 0.29
0.76 0.75 0.78 0.84 0.90 0.94 0.94 0.86 0.73 0.76 0.78 0.67 0.61 0.62 0.67 0.24 0.15 0.07 0.18 0.88 2.05 1.56 0.10 0.00 0.01 0.00 0.02 0.05 0.06 0.08 0.08 0.12 0.10 0.06 0.08 0.07 0.08 0.02 0.01 0.05 0.03 0.06 0.16 0.38 0.55 0.47 0.23
0.90 0.77 0.72 0.73 0.67 0.70 0.73 0.77 0.77 0.79 0.87 1.05 1.09 1.06 0.81 0.38 0.21 0.21 0.78 2.28 2.53 0.34 0.01 0.00 0.00 0.01 0.13 0.20 0.17 0.18 0.09 0.08 0.03 0.02 0.08 0.16 0.24 0.05 0.01 0.02 0.03 0.06 0.16 0.33 0.72 0.54 0.27
0.98 0.90 0.83 0.75 0.68 0.62 0.59 0.62 0.68 0.77 0.95 1.27 1.81 1.46 1.14 0.47 0.39 0.83 1.89 2.97 1.00 0.06 0.03 0.03 0.04 0.16 0.27 0.15 0.23 0.19 0.07 0.08 0.03 0.03 0.27 0.36 0.43 0.03 0.02 0.03 0.03 0.03 0.08 0.12 0.60 0.59 0.81
1.09 1.06 0.96 0.86 0.78 0.72 0.71 0.64 0.62 0.76 1.01 1.41 1.71 1.88 1.13 0.36 0.71 2.00 3.34 1.87 0.23 0.01 0.01 0.07 0.39 0.33 0.36 0.16 0.25 0.16 0.15 0.09 0.05 0.04 0.13 0.40 0.87 0.07 0.06 0.07 0.04 0.03 0.11 0.59 1.30 1.79 1.17
1.24 1.12 1.00 0.87 0.83 0.78 0.75 0.78 0.83 0.84 1.19 1.50 1.89 2.46 0.97 0.61 2.02 3.72 3.41 1.08 0.10 0.00 0.03 0.18 0.49 0.47 0.38 0.45 0.43 0.54 0.59 0.26 0.05 0.12 0.15 0.27 0.89 0.20 0.04 0.15 0.04 0.03 0.16 0.52 0.88 0.79 1.40
1.46 1.26 1.15 0.97 0.89 0.90 0.87 0.91 1.03 1.21 1.61 2.25 2.64 2.40 0.94 1.28 3.27 3.61 1.85 0.48 0.13 0.02 0.04 0.10 0.30 0.51 0.61 0.65 0.66 1.21 0.74 0.48 0.10 0.20 0.28 0.16 0.49 0.20 0.07 0.04 0.07 0.11 0.17 0.32 1.08 1.10 1.37
1.77 1.55 1.30 1.14 1.01 1.01 0.93 1.05 1.24 1.59 2.13 2.67 3.52 2.26 1.83 1.90 2.51 1.65 0.82 0.40 0.28 0.21 0.15 0.39 0.34 0.51 0.66 0.76 1.01 0.86 0.85 0.46 0.22 0.23 0.28 0.32 0.59 0.47 0.33 0.27 0.47 0.35 0.36 0.55 0.92 1.41 1.98
1.86 1.72 1.46 1.35 1.28 1.24 1.11 1.12 1.34 1.67 2.23 3.30 4.32 3.21 3.55 4.04 1.64 0.57 0.65 0.69 0.63 0.39 0.35 0.41 0.68 0.78 0.80 0.69 0.53 0.69 0.67 0.28 0.13 0.16 0.30 0.61 1.01 0.83 0.79 0.73 0.90 0.77 0.59 0.48 1.09 1.87 1.30
2.14 1.86 1.60 1.45 1.45 1.41 1.34 1.25 1.37 1.88 2.54 4.45 5.88 2.81 1.41 2.14 1.65 0.84 0.70 1.01 0.76 0.62 0.49 0.36 0.70 0.61 0.63 0.90 0.57 0.44 0.42 0.29 0.19 0.08 0.12 0.44 1.27 0.80 0.69 0.78 0.59 0.78 1.17 1.18 0.95 0.85 1.03
2.16 1.97 1.78 1.60 1.50 1.61 1.49 1.44 1.40 1.85 3.42 6.25 5.78 1.69 0.86 0.54 0.35 0.82 1.45 1.38 0.71 0.50 0.80 0.66 0.58 0.32 0.42 0.71 0.69 0.57 0.52 0.55 0.42 0.20 0.30 0.34 0.93 0.95 0.77 0.63 0.43 0.66 0.95 0.65 0.63 0.97 0.87
2.40 2.19 2.13 1.90 1.75 1.73 1.90 1.76 1.67 1.90 4.07 7.60 4.49 1.18 1.46 1.00 0.47 0.89 0.93 0.74 0.62 0.63 0.69 0.56 0.66 0.90 0.76 0.53 0.54 0.55 0.52 0.61 0.55 0.50 0.48 0.50 0.68 0.78 0.64 0.27 0.31 0.92 0.88 0.50 0.30 0.28 0.27
2.41 2.30 2.11 2.35 2.02 1.89 1.88 2.00 2.09 2.18 3.10 4.23 2.98 1.25 1.97 1.84 0.99 0.61 0.39 0.45 0.52 0.68 0.90 0.53 0.53 0.68 0.49 0.41 0.52 0.62 0.55 0.37 0.37 0.32 0.51 0.71 0.55 0.89 0.73 0.57 1.24 0.77 0.28 0.15 0.04 0.07 0.07
2.12 2.19 1.93 2.12 2.36 2.06 1.82 1.85 2.29 2.29 2.23 2.54 2.11 1.77 2.08 1.62 0.56 0.51 0.55 0.47 0.38 0.50 0.73 0.56 0.50 0.55 0.59 0.70 1.14 1.02 0.77 0.61 0.25 0.28 0.30 0.41 0.71 1.04 1.00 0.62 0.57 0.27 0.09 0.05 0.13 0.13 0.08
2.10 1.96 1.67 1.88 2.09 2.34 2.02 1.84 2.09 2.37 2.28 2.53 2.02 2.16 2.63 2.32 0.90 0.33 0.63 0.68 0.67 0.62 0.68 0.55 0.45 0.33 0.56 0.89 1.23 1.09 0.72 0.53 0.35 0.31 0.26 0.48 0.70 1.37 1.26 0.89 0.52 0.20 0.06 0.06 0.14 0.31 0.14
2.54 2.04 1.67 1.68 1.65 2.16 2.42 2.04 1.72 2.12 2.51 2.74 2.30 1.96 3.54 3.34 0.81 0.41 0.49 0.48 0.51 0.56 0.78 0.58 0.59 0.56 0.63 1.07 1.18 0.67 0.42 0.25 0.45 0.37 0.40 0.59 1.05 1.52 1.43 1.41 0.54 0.09 0.11 0.12 0.40 0.58 0.17
2.56 2.42 1.67 1.52 1.46 1.56 1.89 2.34 2.15 1.98 2.49 3.32 2.61 1.65 2.59 3.07 1.08 0.54 0.44 0.47 0.30 0.40 0.71 0.74 1.02 1.20 1.36 1.44 1.11 0.77 0.53 0.33 0.40 0.35 0.33 0.44 0.75 0.82 1.15 1.41 0.73 0.22 0.41 0.56 0.54 0.24 0.12
2.16 2.48 1.67 1.43 1.47 1.46 1.37 1.65 2.34 2.44 2.55 3.53 3.38 1.79 2.12 2.96 1.83 0.80 0.41 0.35 0.30 0.27 0.53 0.73 0.90 0.71 0.92 1.24 0.98 0.79 0.65 0.46 0.37 0.71 0.40 0.71 0.49 0.60 0.59 0.73 0.69 0.54 0.52 0.39 0.21 0.24 0.24